Overview Statistics Trail Chart Weather Telemetry Raw packets
 

This is the latest recevied weather packets stored in our database for station/object N0RPM-13. If no packets are shown the sender has not sent any weather packets the latest 10 day(s).

<< 2 3 4 5 6 7 8 >>
Time Temp. Humidity Pressure Rain* Wind** Luminosity Snow
1788550693 30° C 66% 1013 hPa 0 mm - 702 W/m² -
1788550388 30° C 65% 1013.1 hPa 0 mm - 712 W/m² -
1788550083 30° C 67% 1013 hPa 0 mm - 515 W/m² -
1788549778 30° C 66% 1013 hPa 0 mm - 761 W/m² -
1788549475 30° C 66% 1013 hPa 0 mm - 767 W/m² -
1788549171 29.44° C 67% 1013.2 hPa 0 mm - 824 W/m² -
1788548867 29.44° C 68% 1013.3 hPa 0 mm - 946 W/m² -
1788548563 28.89° C 70% 1013.2 hPa 0 mm - 806 W/m² -
1788548259 28.89° C 69% 1013.2 hPa 0 mm - 632 W/m² -
1788547954 28.89° C 70% 1013.1 hPa 0 mm - 723 W/m² -
1788547652 28.89° C 69% 1013.3 hPa 0 mm - 844 W/m² -
1788547349 28.89° C 69% 1013.1 hPa 0 mm - 528 W/m² -
1788547045 28.89° C 69% 1013.1 hPa 0 mm - 417 W/m² -
1788546745 28.89° C 69% 1013.1 hPa 0 mm - 509 W/m² -
1788546440 28.89° C 69% 1013.3 hPa 0 mm - 775 W/m² -
1788546163 28.89° C 70% 1013.2 hPa 0 mm - 793 W/m² -
1788545830 28.89° C 70% 1013 hPa 0 mm - 558 W/m² -
1788545530 28.89° C 70% 1013.2 hPa 0 mm - 927 W/m² -
1788545226 28.89° C 70% 1013.2 hPa 0 mm - 504 W/m² -
1788544921 28.89° C 71% 1013 hPa 0 mm - 847 W/m² -
1788544626 29.44° C 70% 1013.1 hPa 0 mm - 486 W/m² -
1788544318 28.89° C 71% 1012.9 hPa 0 mm - 809 W/m² -
1788544013 28.89° C 72% 1012.9 hPa 0 mm - 765 W/m² -
1788543709 28.89° C 71% 1013 hPa 0 mm - 572 W/m² -
1788543405 28.89° C 71% 1012.9 hPa 0 mm - 774 W/m² -

* Rain latest hour (hover to see other rain measurements)
** Current wind speed in m/s (hover to see current wind gust speed)